Humidity-temperature Sensor

Selected Measurement Type: Air Temperature

 
Air Temperature [°C]     6 entries per hour
Showing data from 6/30/2022 (00:00:00 Z) to 6/23/2022 (00:01:00 Z)
Previous Next [ Day | 3-Days | 7-Days ]
First Last
Prev [ Day | 3-Days | 7-Days ] Next
First Last

Start Time:     :
End Time:     :     
Time (in GMT) :00 :50 :40 :30 :20 :10
Previous Next [ Day | 3-Days | 7-Days ]
First Last
Prev [ Day | 3-Days | 7-Days ] Next
First Last


123 => good data
MM => data is determined as missing
-- => data not received/configured
Back to Top Back to Top
6/30/2022 00:00 to 23:10 26.13 26.12 26.23 26.09 26.23 26.26
6/29/2022 23:00 to 22:10 26.11 26.05 26.11 26.14 26.14 26.14
6/29/2022 22:00 to 21:10 26.08 26.11 26.17 26.13 26.13 26.10
6/29/2022 21:00 to 20:10 26.10 25.96 26.10 26.16 25.89 26.09
6/29/2022 20:00 to 19:10 26.16 26.09 25.99 26.02 25.91 25.95
6/29/2022 19:00 to 18:10 25.96 25.97 26.04 25.97 25.98 26.00
6/29/2022 18:00 to 17:10 26.06 26.07 26.02 25.99 25.07 24.80
6/29/2022 17:00 to 16:10 24.65 24.68 24.50 24.18 24.06 25.04
6/29/2022 16:00 to 15:10 25.90 25.95 25.71 25.71 25.72 25.74
6/29/2022 15:00 to 14:10 25.83 25.79 25.63 25.68 25.73 25.77
6/29/2022 14:00 to 13:10 26.06 25.75 25.85 25.33 24.89 25.06
6/29/2022 13:00 to 12:10 24.72 25.40 25.27 25.34 25.38 25.37
6/29/2022 12:00 to 11:10 25.26 25.28 25.14 25.27 25.19 25.23
6/29/2022 11:00 to 10:10 25.13 25.27 25.21 24.85 24.70 24.65
6/29/2022 10:00 to 9:10 24.64 24.77 24.75 24.96 24.84 24.92
6/29/2022 09:00 to 8:10 25.10 24.95 25.75 25.50 25.59 25.60
6/29/2022 08:00 to 7:10 25.55 25.60 25.57 25.66 25.47 25.56
6/29/2022 07:00 to 6:10 25.66 25.46 25.58 25.66 25.45 25.39
6/29/2022 06:00 to 5:10 25.45 25.52 25.50 25.57 25.69 25.54
6/29/2022 05:00 to 4:10 25.55 25.59 25.48 25.57 25.48 25.40
6/29/2022 04:00 to 3:10 25.53 25.48 25.34 25.32 25.33 25.32
6/29/2022 03:00 to 2:10 25.26 25.18 25.38 25.37 25.38 25.28
6/29/2022 02:00 to 1:10 25.03 25.07 24.69 24.64 24.95 25.17
6/29/2022 01:00 to 0:10 24.76 25.10 25.03 25.20 26.07 25.57
6/29/2022 00:00 to 23:10 25.87 25.73 25.92 25.87 25.75 25.69
6/28/2022 23:00 to 22:10 25.65 25.71 25.69 25.87 25.70 25.83
6/28/2022 22:00 to 21:10 25.66 25.52 25.65 25.72 25.61 25.69
6/28/2022 21:00 to 20:10 25.63 25.61 25.64 25.89 25.79 25.73
6/28/2022 20:00 to 19:10 25.66 25.84 25.67 25.66 25.72 25.77
6/28/2022 19:00 to 18:10 25.67 25.61 25.88 25.94 25.79 25.98
6/28/2022 18:00 to 17:10 25.89 26.05 25.92 25.91 25.94 25.98
6/28/2022 17:00 to 16:10 25.94 25.91 26.01 26.24 26.08 25.87
6/28/2022 16:00 to 15:10 25.88 25.92 25.58 25.75 25.78 25.58
6/28/2022 15:00 to 14:10 25.79 25.36 25.58 25.62 25.59 25.44
6/28/2022 14:00 to 13:10 25.68 25.46 25.60 25.59 25.55 25.38
6/28/2022 13:00 to 12:10 25.66 25.47 25.41 25.46 25.44 25.47
6/28/2022 12:00 to 11:10 25.45 25.43 25.47 25.47 25.67 25.47
6/28/2022 11:00 to 10:10 25.48 25.41 25.59 25.44 25.35 25.59
6/28/2022 10:00 to 9:10 25.53 25.60 25.49 25.63 25.62 25.60
6/28/2022 09:00 to 8:10 25.46 25.43 25.67 25.80 25.68 25.75
6/28/2022 08:00 to 7:10 25.48 25.65 25.73 25.73 25.62 25.69
6/28/2022 07:00 to 6:10 25.82 25.83 25.74 25.78 25.61 25.73
6/28/2022 06:00 to 5:10 25.79 25.83 25.67 25.93 25.92 25.73
6/28/2022 05:00 to 4:10 25.74 25.73 25.90 25.86 25.84 25.91
6/28/2022 04:00 to 3:10 25.80 25.89 25.77 25.75 25.96 25.75
6/28/2022 03:00 to 2:10 25.81 25.76 25.73 25.88 25.85 25.99
6/28/2022 02:00 to 1:10 25.63 25.81 25.72 25.89 25.85 25.86
6/28/2022 01:00 to 0:10 25.76 25.73 25.77 25.81 25.76 25.67
6/28/2022 00:00 to 23:10 25.82 25.85 25.77 25.78 25.60 25.71
6/27/2022 23:00 to 22:10 25.74 25.57 25.64 25.74 25.59 25.73
6/27/2022 22:00 to 21:10 25.63 25.67 25.67 25.52 25.62 25.50
6/27/2022 21:00 to 20:10 25.66 25.64 25.53 25.71 25.46 25.80
6/27/2022 20:00 to 19:10 25.51 25.58 25.54 25.64 25.67 25.54
6/27/2022 19:00 to 18:10 25.59 25.49 25.58 25.52 25.67 25.66
6/27/2022 18:00 to 17:10 25.59 25.67 25.60 25.63 25.50 25.47
6/27/2022 17:00 to 16:10 25.52 25.64 25.64 25.64 25.57 25.59
6/27/2022 16:00 to 15:10 25.60 25.78 25.65 25.63 25.41 25.42
6/27/2022 15:00 to 14:10 25.40 25.45 25.21 25.11 25.09 25.38
6/27/2022 14:00 to 13:10 25.39 25.19 25.15 25.22 25.11 25.22
6/27/2022 13:00 to 12:10 25.07 25.05 24.99 24.94 25.06 24.92
6/27/2022 12:00 to 11:10 25.13 24.98 25.09 24.87 24.97 25.05
6/27/2022 11:00 to 10:10 25.02 25.04 25.12 24.88 25.10 25.02
6/27/2022 10:00 to 9:10 25.05 25.07 25.01 25.05 25.09 25.15
6/27/2022 09:00 to 8:10 25.19 25.08 25.27 25.22 25.21 25.26
6/27/2022 08:00 to 7:10 25.18 25.23 25.17 25.31 25.28 25.29
6/27/2022 07:00 to 6:10 25.22 25.26 25.15 25.26 25.27 25.29
6/27/2022 06:00 to 5:10 25.15 25.30 25.36 25.22 25.31 25.18
6/27/2022 05:00 to 4:10 25.25 25.26 25.27 25.46 25.33 25.13
6/27/2022 04:00 to 3:10 25.18 25.31 25.31 25.34 25.31 25.17
6/27/2022 03:00 to 2:10 25.20 25.29 25.28 25.28 25.23 25.26
6/27/2022 02:00 to 1:10 25.27 25.38 25.38 25.38 25.45 25.20
6/27/2022 01:00 to 0:10 25.27 25.34 25.34 25.33 25.51 25.37
6/27/2022 00:00 to 23:10 25.31 25.32 25.47 25.31 25.40 25.40
6/26/2022 23:00 to 22:10 25.33 25.33 25.35 25.25 25.29 25.28
6/26/2022 22:00 to 21:10 25.29 25.40 25.19 25.31 25.44 25.41
6/26/2022 21:00 to 20:10 25.54 25.40 25.34 25.47 25.38 25.48
6/26/2022 20:00 to 19:10 25.58 25.48 25.49 25.27 25.30 25.41
6/26/2022 19:00 to 18:10 25.43 25.38 25.54 25.64 25.49 25.54
6/26/2022 18:00 to 17:10 25.44 25.47 25.51 25.60 25.50 25.49
6/26/2022 17:00 to 16:10 25.51 25.53 25.76 25.59 25.64 25.74
6/26/2022 16:00 to 15:10 25.60 25.70 25.62 25.72 25.69 25.51
6/26/2022 15:00 to 14:10 25.62 25.40 25.28 25.32 25.10 25.26
6/26/2022 14:00 to 13:10 25.15 25.23 25.13 25.24 25.18 25.21
6/26/2022 13:00 to 12:10 25.19 25.12 25.10 25.14 25.01 25.05
6/26/2022 12:00 to 11:10 25.21 25.26 25.00 25.18 25.18 25.20
6/26/2022 11:00 to 10:10 25.24 25.18 25.17 24.99 25.05 25.22
6/26/2022 10:00 to 9:10 25.16 25.12 25.34 25.28 25.16 25.25
6/26/2022 09:00 to 8:10 25.34 25.29 25.21 25.37 25.31 25.37
6/26/2022 08:00 to 7:10 25.50 25.38 25.29 25.35 25.48 25.47
6/26/2022 07:00 to 6:10 25.45 25.31 25.44 25.52 25.32 25.43
6/26/2022 06:00 to 5:10 25.40 25.45 25.51 25.42 25.43 25.43
6/26/2022 05:00 to 4:10 25.59 25.45 25.47 25.42 25.47 25.38
6/26/2022 04:00 to 3:10 25.35 25.32 25.34 25.36 25.44 25.31
6/26/2022 03:00 to 2:10 25.38 25.27 25.21 25.41 25.41 25.42
6/26/2022 02:00 to 1:10 25.43 25.49 25.40 25.46 25.62 25.45
6/26/2022 01:00 to 0:10 25.35 25.39 25.48 25.46 25.41 25.36
6/26/2022 00:00 to 23:10 25.14 25.44 25.31 25.49 25.47 25.34
6/25/2022 23:00 to 22:10 25.44 25.56 25.31 25.45 25.39 25.49
6/25/2022 22:00 to 21:10 25.43 25.44 25.37 25.44 25.34 25.40
6/25/2022 21:00 to 20:10 25.44 25.35 25.45 25.41 25.41 25.38
6/25/2022 20:00 to 19:10 25.47 25.39 25.46 25.35 25.43 25.47
6/25/2022 19:00 to 18:10 25.37 25.44 25.38 25.40 25.41 25.32
6/25/2022 18:00 to 17:10 25.58 25.50 25.57 25.63 25.70 25.51
6/25/2022 17:00 to 16:10 25.51 25.53 25.59 25.52 25.45 25.56
6/25/2022 16:00 to 15:10 25.34 25.53 25.59 25.26 25.43 25.17
6/25/2022 15:00 to 14:10 25.29 25.07 24.80 25.16 25.15 25.12
6/25/2022 14:00 to 13:10 25.28 25.22 25.14 25.18 25.24 25.15
6/25/2022 13:00 to 12:10 25.30 25.21 25.22 25.14 25.27 25.27
6/25/2022 12:00 to 11:10 25.32 25.20 25.21 25.24 25.14 25.21
6/25/2022 11:00 to 10:10 25.26 25.17 25.39 25.31 25.27 25.27
6/25/2022 10:00 to 9:10 25.21 25.34 25.39 25.26 25.42 25.31
6/25/2022 09:00 to 8:10 25.46 25.60 25.34 25.60 25.48 25.44
6/25/2022 08:00 to 7:10 25.35 25.23 25.60 25.52 25.58 25.50
6/25/2022 07:00 to 6:10 25.33 25.50 25.44 25.61 25.62 25.54
6/25/2022 06:00 to 5:10 25.58 25.67 25.57 25.61 25.58 25.54
6/25/2022 05:00 to 4:10 25.63 25.66 25.75 25.66 25.59 25.78
6/25/2022 04:00 to 3:10 25.55 25.53 25.57 25.70 25.52 25.69
6/25/2022 03:00 to 2:10 25.58 25.51 25.51 25.62 25.64 25.64
6/25/2022 02:00 to 1:10 25.63 25.72 25.67 25.55 25.85 25.70
6/25/2022 01:00 to 0:10 25.75 25.68 25.73 25.77 25.66 25.65
6/25/2022 00:00 to 23:10 25.83 25.66 25.47 25.69 25.46 25.54
6/24/2022 23:00 to 22:10 25.79 25.84 25.64 25.69 25.61 25.63
6/24/2022 22:00 to 21:10 25.55 25.65 25.70 25.65 25.64 25.56
6/24/2022 21:00 to 20:10 25.58 25.56 25.54 25.51 25.40 25.54
6/24/2022 20:00 to 19:10 25.49 25.43 25.46 25.34 25.67 25.68
6/24/2022 19:00 to 18:10 25.48 25.48 25.51 25.68 25.45 25.46
6/24/2022 18:00 to 17:10 25.68 25.59 25.69 25.65 25.50 25.69
6/24/2022 17:00 to 16:10 25.68 25.74 25.57 25.45 25.29 25.28
6/24/2022 16:00 to 15:10 25.40 25.67 25.86 25.12 25.59 25.40
6/24/2022 15:00 to 14:10 25.15 25.34 25.30 25.28 25.13 25.16
6/24/2022 14:00 to 13:10 25.24 25.18 24.96 25.20 25.08 25.02
6/24/2022 13:00 to 12:10 24.62 25.06 24.95 24.96 25.21 25.09
6/24/2022 12:00 to 11:10 25.28 25.12 25.09 25.15 25.04 24.94
6/24/2022 11:00 to 10:10 24.75 25.18 25.22 25.30 25.23 25.26
6/24/2022 10:00 to 9:10 25.18 25.05 25.32 25.13 25.29 25.34
6/24/2022 09:00 to 8:10 25.14 24.98 25.21 25.31 25.16 25.23
6/24/2022 08:00 to 7:10 25.20 25.28 25.30 25.31 25.26 25.41
6/24/2022 07:00 to 6:10 25.32 25.34 25.15 25.15 25.17 24.71
6/24/2022 06:00 to 5:10 25.33 25.53 25.34 25.34 25.44 25.33
6/24/2022 05:00 to 4:10 25.33 25.29 25.45 25.16 25.32 25.32
6/24/2022 04:00 to 3:10 25.09 25.30 25.24 25.23 25.31 25.14
6/24/2022 03:00 to 2:10 25.19 25.31 25.03 25.29 25.29 25.21
6/24/2022 02:00 to 1:10 25.36 25.13 25.34 25.39 25.39 25.25
6/24/2022 01:00 to 0:10 25.24 25.24 25.22 25.23 25.22 25.23
6/24/2022 00:00 to 23:10 25.19 25.22 25.30 25.16 25.22 25.09
6/23/2022 23:00 to 22:10 25.10 25.24 25.09 25.15 25.12 25.10
6/23/2022 22:00 to 21:10 25.05 25.02 25.10 25.04 25.07 25.06
6/23/2022 21:00 to 20:10 25.08 25.06 25.06 25.04 25.14 25.05
6/23/2022 20:00 to 19:10 25.10 24.98 25.14 25.06 25.14 25.08
6/23/2022 19:00 to 18:10 25.03 25.04 25.04 25.07 25.10 25.21
6/23/2022 18:00 to 17:10 25.19 25.14 25.21 25.16 25.18 25.22
6/23/2022 17:00 to 16:10 25.17 25.18 25.23 25.23 25.25 25.31
6/23/2022 16:00 to 15:10 25.20 25.26 25.18 25.04 25.12 25.17
6/23/2022 15:00 to 14:10 25.02 24.84 24.85 24.87 24.79 24.85
6/23/2022 14:00 to 13:10 24.83 24.81 24.71 24.85 24.80 24.74
6/23/2022 13:00 to 12:10 24.74 24.83 24.79 24.90 24.78 24.89
6/23/2022 12:00 to 11:10 24.94 24.79 24.89 25.17 24.96 24.91
6/23/2022 11:00 to 10:10 25.15 24.99 25.04 25.10 25.05 25.06
6/23/2022 10:00 to 9:10 25.11 25.10 25.19 25.05 25.21 25.25
6/23/2022 09:00 to 8:10 25.13 25.22 25.40 25.25 25.29 25.22
6/23/2022 08:00 to 7:10 25.32 25.14 25.31 25.26 25.38 25.34
6/23/2022 07:00 to 6:10 25.37 25.34 25.33 25.34 25.43 25.45
6/23/2022 06:00 to 5:10 25.37 25.49 25.38 25.26 25.44 25.53
6/23/2022 05:00 to 4:10 25.31 25.24 25.40 25.28 25.42 25.44
6/23/2022 04:00 to 3:10 25.29 25.37 25.39 25.43 25.57 25.44
6/23/2022 03:00 to 2:10 25.42 25.59 25.46 25.55 25.38 25.57
6/23/2022 02:00 to 1:10 25.67 25.63 25.61 25.70 25.73 25.68
6/23/2022 01:00 to 0:10 25.64 25.61 25.63 25.55 25.62 25.53